CZ-6A DEB

Satellite information

Favourite Embed

Satellite Type and Status

DEBRISIN ORBIT

Key statistics

Satellite CZ-6A DEB at a glance.

Uptime

1031

Days in orbit

Revolutions

≈ 14.1

Per day

Orbit

SSO

Sun Synchronous Orbit

Inclination

98.9

Latest

Satellite identification and parameters

Extended collection of information and parameters for CZ-6A DEB.

Object identification

Identified? True

Debris? True

Object name: CZ-6A DEB

International designator: 2022-151AFH

Object number (NORAD): 56633

Object ID (CCSDS): 56633

Country: PEOPLES REPUBLIC OF CHINA (PRC)

Current information (Y/N): Y

RCS size: SMALL

Orbital parameters

Period: 102.423 minutes

Inclination: 98.8528 deg

SMA: 7251.462 km

Apoapsis: 928.971 km

Periapsis: 817.682 km

RAAN: 232.5015 deg

Eccentricy: 0.00767356

Argument of periapsis: 117.1775 deg

Mean anomaly: 243.7242 deg

Mean motion: 14.05932336 rev/day

Mean motion (dot): 0.00001344 rev/day2

B* drag term: 0.0008244272 1/REarth

Two-line elements (TLE)

Creation date: Aug. 28, 2025, 11:13 p.m.

Reference frame: TEME

Reference center: EARTH

Epoch: Aug. 28, 2025, 10:09 a.m. UTC

TLE line 0: 0 CZ-6A DEB

TLE line 1: 1 56633U 22151AFH 25240.42319229 .00001344 00000-0 82443-3 0 9995

TLE line 2: 2 56633 98.8528 232.5015 0076736 117.1775 243.7242 14.05932336120868

Live tracking on map

Real-time ground track for satellite CZ-6A DEB.

In-orbit conjunctions

A list of the most updated potential collisions computed for object CZ-6A DEB.

Target Orbit TCA Probability of collision Miss distance Type
NOAA 16 DEB SSO 2024-11-11 00:34:50 0.0002629512 256.0 (m) DEBRIS
COSMOS 1375 DEB LEO 2024-11-08 17:09:41 0.0004531412 532.0 (m) DEBRIS

Associated space launch

Chinese satellite reported for atmospheric/ocean/environmental/spatial parameter research purposes, details TBD.

CZ-6A DEB was lifted into orbit during the mission ‘Long March 6A | Yunhai 3’, on board a Long March 6A space rocket.

The launch took place on Nov. 11, 2022, 10:52 p.m. from Launch Complex 9A.

For more information about the launch, click the button.

Launch to space Long March 6A | Yunhai 3
Long March 6A | Yunhai 3

Agency: N/A

Status: Launch Successful

Launch date: Nov. 11, 2022, 10:52 p.m. UTC

Rocket: Long March 6A

Launch pad: Launch Complex 9A

Location: Taiyuan Satellite Launch Center, People's Republic of China

...

Latest news about this satellite

There are no fresh news available about this satellite. Check back as we update our databases every day.


Newsletter sign-up

Weekly statistics, charts and insights to help you stay on top of the space industry.